Back to catalog

STARLINK-4056

AliveCommunicationsVLEO
NORAD 53242·PAYLOAD·🇺🇸 United States

Launched Jul 24, 2022 from Cape Canaveral Space Force Station

Loading…

Next Passes (next 24 hours)

TLE

FreshSource: CelesTrak SupGP

Epoch: Sep 14, 2026, 20:40 UTC

1 53242C 22086A   26257.86159722  .00020351  00000+0  60131-3 0  2577
2 53242  53.1596  62.0840 0001077  78.0201 238.2752 15.34378476    18

Track STARLINK-4056 in real time with AllMySat

Download on the App Store